Location: Azul
(36.7830°S, 59.8500°W)
Time: 17:48:13
(UTC-03:00)

AIST 2D - Pass Details

Date: 01 November 2021
Orbit: 445 x 462 km, 97.1° (Epoch: 06 December)

Event Time Altitude Azimuth Distance (km) Brightness Sun altitude
Exits shadow 21:27:11 15° 139° (SE) 1,327 ? -20.9°
Drops below altitude 10° 21:28:14 10° 155° (SSE) 1,602 ? -21.0°
Sets 21:30:43 0° 173° (S) 2,484 ? -21.4°
